This is the latest recevied weather packets stored in our database for station/object N7CEE-2. If no packets are shown the sender has not sent any weather packets the latest 10 day(s).
| Time | Temp. | Humidity | Pressure | Rain* | Wind** | Luminosity | Snow |
|---|---|---|---|---|---|---|---|
| 1777240986 | 22.78° C | 30% | 1012.3 hPa | 0 mm | - | 263 W/m² | - |
| 1777240684 | 22.78° C | 30% | 1012.2 hPa | 0 mm | - | 458 W/m² | - |
| 1777240381 | 22.78° C | 30% | 1012.4 hPa | 0 mm | - | 623 W/m² | - |
| 1777240079 | 23.33° C | 30% | 1012.3 hPa | 0 mm | - | 299 W/m² | - |
| 1777239777 | 23.33° C | 30% | 1012.2 hPa | 0 mm | - | 929 W/m² | - |
| 1777239472 | 23.89° C | 29% | 1012.2 hPa | 0 mm | - | 341 W/m² | - |
| 1777239170 | 22.78° C | 31% | 1012.4 hPa | 0 mm | - | 379 W/m² | - |
| 1777238866 | 22.78° C | 31% | 1012.5 hPa | 0 mm | - | 278 W/m² | - |
| 1777238558 | 22.78° C | 32% | 1012.6 hPa | 0 mm | - | 277 W/m² | - |
| 1777238254 | 23.33° C | 31% | 1012.6 hPa | 0 mm | - | 238 W/m² | - |
| 1777237952 | 22.22° C | 33% | 1012.8 hPa | 0 mm | - | 636 W/m² | - |
| 1777237647 | 22.78° C | 32% | 1012.7 hPa | 0 mm | - | 979 W/m² | - |
| 1777237346 | 23.89° C | 32% | 1012.8 hPa | 0 mm | - | 261 W/m² | - |
| 1777237043 | 22.78° C | 32% | 1013 hPa | 0 mm | - | 967 W/m² | - |
| 1777236741 | 23.33° C | 31% | 1012.7 hPa | 0 mm | - | 1137 W/m² | - |
| 1777236438 | 23.33° C | 31% | 1012.8 hPa | 0 mm | - | 1080 W/m² | - |
| 1777236136 | 21.67° C | 32% | 1012.7 hPa | 0 mm | - | 1108 W/m² | - |
| 1777235831 | 22.22° C | 32% | 1012.8 hPa | 0 mm | - | 377 W/m² | - |
| 1777235523 | 22.22° C | 32% | 1012.8 hPa | 0 mm | - | 745 W/m² | - |
| 1777235219 | 22.22° C | 31% | 1012.8 hPa | 0 mm | - | 1178 W/m² | - |
| 1777234916 | 22.78° C | 32% | 1012.8 hPa | 0 mm | - | 474 W/m² | - |
| 1777234611 | 22.78° C | 33% | 1013 hPa | 0 mm | - | 1197 W/m² | - |
| 1777234311 | 21.67° C | 33% | 1013 hPa | 0 mm | - | 1202 W/m² | - |
| 1777234007 | 22.78° C | 32% | 1013.1 hPa | 0 mm | - | 1099 W/m² | - |
| 1777233704 | 21.67° C | 33% | 1013 hPa | 0 mm | - | 1080 W/m² | - |
* Rain latest hour (hover to see other rain measurements)
** Current wind speed in m/s (hover to see current wind gust speed)